ORBCOMM FM 13

Satellite information

Favourite Embed

Satellite Type and Status

PAYLOADIN ORBIT

Key statistics

Satellite ORBCOMM FM 13 at a glance.

Uptime

9776

Days in orbit

Revolutions

≈ 14.4

Per day

Orbit

LEO

Low Earth Orbit

Inclination

45.0

Latest

Satellite identification and parameters

Extended collection of information and parameters for ORBCOMM FM 13.

Object identification

Identified? True

Debris? False

Object name: ORBCOMM FM 13

International designator: 1998-046H

Object number (NORAD): 25420

Object ID (CCSDS): 25420

Country: ORBITAL TELECOMMUNICATIONS SATELLITE (GLOBALSTAR) (ORB)

Current information (Y/N): Y

RCS size: LARGE

Orbital parameters

Period: 100.168 minutes

Inclination: 44.999 deg

SMA: 7144.613 km

Apoapsis: 770.292 km

Periapsis: 762.663 km

RAAN: 15.027 deg

Eccentricy: 0.0005339

Argument of periapsis: 67.1122 deg

Mean anomaly: 293.029 deg

Mean motion: 14.37588976 rev/day

Mean motion (dot): 0.00001249 rev/day2

B* drag term: 0.00045954 1/REarth

Two-line elements (TLE)

Creation date: May 8, 2025, 3:01 a.m.

Reference frame: TEME

Reference center: EARTH

Epoch: May 7, 2025, 10:01 p.m. UTC

TLE line 0: 0 ORBCOMM FM 13

TLE line 1: 1 25420U 98046H 25127.91747576 .00001249 00000-0 45954-3 0 9999

TLE line 2: 2 25420 44.9990 15.0270 0005339 67.1122 293.0290 14.37588976397444

Live tracking on map

Real-time ground track for satellite ORBCOMM FM 13.

In-orbit conjunctions

There are no conjunctions computed for ORBCOMM FM 13, at the moment. Check back to stay up to date, as we update our databases every day.

Go to all conjunctions

Associated space launch

ORBCOMM FM 13 was lifted into orbit during the mission ‘Pegasus XL HAPS | Orbcomm-B1 - B8’, on board a Pegasus XL HAPS space rocket.

The launch took place on Aug. 2, 1998, 4:24 p.m. from Wallops Flight Facility.

For more information about the launch, click the button.

Launch to space Pegasus XL HAPS | Orbcomm-B1 - B8
Pegasus XL HAPS | Orbcomm-B1 - B8

Agency: N/A

Status: Launch Successful

Launch date: Aug. 2, 1998, 4:24 p.m. UTC

Rocket: Pegasus XL HAPS

Launch pad: Wallops Flight Facility

Location: Air launch to orbit

...

Latest news about this satellite

There are no fresh news available about this satellite. Check back as we update our databases every day.


Newsletter sign-up

Weekly statistics, charts and insights to help you stay on top of the space industry.